CW8822 Caguas PR US current weather conditions

sailwx.info

Wind from 094 at 5 knots gusting 15

Air temperature 30.6° C
Dewpoint 21.1° C

Last reported at 2015-Jul-30 15:40 UTC.
Time now 2015-Jul-30 16:11 UTC

Location: N 18°12' W 066°01'.
View on Google Maps.

See reports from other nearby stations

  
Tides and Currents Weather Stations Pressure Air Temp Water Temp Dewpoint Dewpoint Depression Visibility Wind Speed Wind Dir Waves Ship Positions
date/time (UTC)wind fromknots sea level pressurealtimeterstation pressurevisibilityair tempwater tempwave heightnotes
2015-Jul-30 15:40 094 5 gusting 15 30.6
2015-Jul-30 15:26 028 3 gusting 13 30.0
2015-Jul-30 15:11 015 2 gusting 13 30.0
2015-Jul-30 14:55 091 3 gusting 12 29.4
2015-Jul-30 14:40 087 1 gusting 9 30.0
2015-Jul-30 14:26 096 3 gusting 10 29.4
2015-Jul-30 14:10 209 3 gusting 7 29.4
2015-Jul-30 13:55 081 2 gusting 9 29.4
2015-Jul-30 13:39 061 0 gusting 9 29.4
2015-Jul-30 13:25 052 1 gusting 10 28.9
2015-Jul-30 13:09 061 6 gusting 13 28.3
2015-Jul-30 12:55 056 6 gusting 13 27.8
2015-Jul-30 12:39 064 1 gusting 13 27.2
2015-Jul-30 12:25 069 0 gusting 8 27.2
2015-Jul-30 12:09 051 1 gusting 6 26.7
2015-Jul-30 11:55 094 1 gusting 5 26.1
2015-Jul-30 11:39 080 1 gusting 3 26.1
2015-Jul-30 11:25 093 25.6
2015-Jul-30 11:09 081 25.6
2015-Jul-30 10:54 090 0 gusting 5 25.0
2015-Jul-30 10:38 123 24.4
2015-Jul-30 10:24 123 23.9
2015-Jul-30 10:08 140 23.9
2015-Jul-30 09:54 140 24.4
2015-Jul-30 09:38 140 24.4
2015-Jul-30 09:24 082 24.4
2015-Jul-30 09:08 082 0 gusting 4 24.4
2015-Jul-30 08:53 072 24.4
2015-Jul-30 08:37 065 24.4
2015-Jul-30 08:23 065 24.4
2015-Jul-30 08:08 065 24.4
2015-Jul-30 07:52 065 0 gusting 2 24.4
2015-Jul-30 07:38 065 24.4
2015-Jul-30 07:23 064 24.4
2015-Jul-30 07:07 096 0 gusting 5 24.4
2015-Jul-30 06:53 086 0 gusting 5 24.4
2015-Jul-30 06:37 066 1 gusting 6 24.4
2015-Jul-30 06:23 095 0 gusting 5 24.4
2015-Jul-30 06:07 079 0 gusting 4 24.4
2015-Jul-30 05:52 088 0 gusting 4 24.4
2015-Jul-30 05:38 092 0 gusting 5 24.4
2015-Jul-30 05:21 103 0 gusting 5 24.4
2015-Jul-30 05:07 057 0 gusting 6 24.4
2015-Jul-30 04:53 101 24.4
2015-Jul-30 04:36 101 0 gusting 6 24.4
2015-Jul-30 04:21 087 1 gusting 6 25.0
2015-Jul-30 04:07 087 1 gusting 6 25.0
2015-Jul-30 03:51 088 1 gusting 6 25.0
2015-Jul-30 03:37 047 0 gusting 6 25.0
2015-Jul-30 03:21 076 25.0
2015-Jul-30 03:06 094 25.0
2015-Jul-30 02:51 094 25.0
2015-Jul-30 02:35 094 25.0
2015-Jul-30 02:21 094 25.0
2015-Jul-30 02:06 096 25.6
2015-Jul-30 01:52 069 25.6
2015-Jul-30 01:35 069 0 gusting 4 25.6
2015-Jul-30 01:21 045 1 gusting 6 25.6
2015-Jul-30 01:06 065 0 gusting 3 25.6
2015-Jul-30 00:50 060 26.1
2015-Jul-30 00:36 071 0 gusting 6 26.1
2015-Jul-30 00:21 082 0 gusting 3 26.1
2015-Jul-30 00:05 074 0 gusting 3 26.1
2015-Jul-29 23:50 074 0 gusting 4 26.7
2015-Jul-29 23:34 076 0 gusting 4 26.7
2015-Jul-29 23:20 078 26.7
2015-Jul-29 23:06 095 0 gusting 6 27.2
2015-Jul-29 22:50 105 1 gusting 5 27.2
2015-Jul-29 22:35 097 2 gusting 6 27.2
2015-Jul-29 22:20 092 27.8
2015-Jul-29 22:06 112 0 gusting 6 27.8
2015-Jul-29 21:50 092 1 gusting 6 28.3
2015-Jul-29 21:35 085 2 gusting 6 28.3
2015-Jul-29 21:19 090 1 gusting 6 28.3
2015-Jul-29 21:05 084 2 gusting 7 28.9
2015-Jul-29 20:49 061 4 gusting 7 29.4
2015-Jul-29 20:35 113 2 gusting 6 28.9
2015-Jul-29 20:19 090 2 gusting 7 28.9
2015-Jul-29 20:05 113 4 gusting 9 28.9
2015-Jul-29 19:49 097 4 gusting 10 29.4
2015-Jul-29 19:35 095 4 gusting 11 30.0
2015-Jul-29 19:19 101 5 gusting 13 31.1
2015-Jul-29 19:05 142 1 gusting 9 30.6
2015-Jul-29 18:48 070 4 gusting 16 30.0
2015-Jul-29 18:34 052 2 gusting 13 31.1
2015-Jul-29 18:18 190 5 gusting 11 31.1
2015-Jul-29 18:04 123 3 gusting 10 30.6
2015-Jul-29 17:48 117 5 gusting 13 30.6
2015-Jul-29 17:33 148 0 gusting 8 31.1
2015-Jul-29 17:19 101 4 gusting 11 31.1
2015-Jul-29 17:03 046 2 gusting 11 31.1
2015-Jul-29 16:49 197 2 gusting 9 31.1
2015-Jul-29 16:33 122 1 gusting 6 31.7
2015-Jul-29 16:18 150 1 gusting 10 31.1
2015-Jul-29 16:02 071 2 gusting 8 31.1
2015-Jul-29 15:48 061 4 gusting 10 30.6
2015-Jul-29 15:32 101 2 gusting 11 30.6
2015-Jul-29 15:18 152 1 gusting 8 30.6
2015-Jul-29 15:02 088 3 gusting 9 29.4
2015-Jul-29 14:48 107 1 gusting 9 28.9
2015-Jul-29 14:33 086 4 gusting 7 28.9
2015-Jul-29 14:17 087 3 gusting 7 30.0
2015-Jul-29 14:03 132 1 gusting 10 28.9
2015-Jul-29 13:46 117 2 gusting 10 27.8
2015-Jul-29 13:32 053 1 gusting 8 28.3
2015-Jul-29 13:18 051 2 gusting 13 28.3
2015-Jul-29 13:02 086 1 gusting 7 28.3
2015-Jul-29 12:47 086 27.8
2015-Jul-29 12:31 055 1 gusting 6 27.2
2015-Jul-29 12:17 090 1 gusting 6 27.2
2015-Jul-29 12:01 097 0 gusting 5 26.1
2015-Jul-29 11:47 080 1 gusting 5 26.1
2015-Jul-29 11:31 113 25.6
2015-Jul-29 11:17 113 25.0
2015-Jul-29 11:01 113 24.4
2015-Jul-29 10:46 113 24.4
2015-Jul-29 10:30 113 23.9
2015-Jul-29 10:16 113 0 gusting 4 23.9
2015-Jul-29 10:01 117 0 gusting 3 23.9
2015-Jul-29 09:45 118 23.9
2015-Jul-29 09:31 091 23.9
2015-Jul-29 09:15 089 23.9
2015-Jul-29 09:00 086 23.9
2015-Jul-29 08:46 080 23.9
2015-Jul-29 08:30 080 23.9
2015-Jul-29 08:15 080 24.4
2015-Jul-29 08:01 078 0 gusting 3 24.4
2015-Jul-29 07:45 078 23.9
2015-Jul-29 07:30 078 24.4
2015-Jul-29 07:14 078 24.4
2015-Jul-29 07:00 078 24.4
2015-Jul-29 06:44 084 24.4
2015-Jul-29 06:30 094 0 gusting 4 24.4
2015-Jul-29 06:15 094 0 gusting 4 24.4
2015-Jul-29 06:00 101 0 gusting 4 24.4
2015-Jul-29 05:44 096 24.4
2015-Jul-29 05:30 095 24.4
2015-Jul-29 05:14 095 24.4
2015-Jul-29 04:59 095 25.0
2015-Jul-29 04:44 095 25.0
2015-Jul-29 04:29 095 25.0
2015-Jul-29 04:13 095 25.0
2015-Jul-29 03:59 095 25.0
2015-Jul-29 03:43 095 25.0
2015-Jul-29 03:29 095 25.0
2015-Jul-29 03:13 095 25.0
2015-Jul-29 02:58 095 25.6
2015-Jul-29 02:44 095 25.6
2015-Jul-29 02:28 095 25.6
2015-Jul-29 02:13 095 25.6
2015-Jul-29 01:59 095 25.6
2015-Jul-29 01:42 095 25.6
2015-Jul-29 01:28 095 25.6
2015-Jul-29 01:14 095 25.6
2015-Jul-29 00:57 095 26.1
2015-Jul-29 00:43 095 26.1
2015-Jul-29 00:28 095 26.1
2015-Jul-29 00:12 095 26.1
2015-Jul-28 23:58 095 26.7
2015-Jul-28 23:43 086 0 gusting 4 26.7
2015-Jul-28 23:27 080 1 gusting 6 26.7
2015-Jul-28 23:13 121 0 gusting 4 27.2
2015-Jul-28 22:58 084 27.2
2015-Jul-28 22:42 078 27.8
2015-Jul-28 22:27 079 1 gusting 4 27.8
2015-Jul-28 22:13 119 27.8
2015-Jul-28 21:57 117 0 gusting 6 27.8
2015-Jul-28 21:42 115 0 gusting 6 28.3
2015-Jul-28 21:28 082 1 gusting 7 28.3
2015-Jul-28 21:12 126 2 gusting 8 28.9
2015-Jul-28 20:57 062 3 gusting 8 28.9
2015-Jul-28 20:41 155 0 gusting 9 28.9
2015-Jul-28 20:27 117 3 gusting 12 29.4
2015-Jul-28 20:11 113 3 gusting 8 30.0
2015-Jul-28 19:57 094 1 gusting 9 30.0
2015-Jul-28 19:41 089 1 gusting 13 29.4
2015-Jul-28 19:27 087 3 gusting 9 30.0
2015-Jul-28 19:11 080 4 gusting 13 30.0
2015-Jul-28 18:57 101 5 gusting 11 30.6
2015-Jul-28 18:41 090 6 gusting 12 30.6
2015-Jul-28 18:26 102 4 gusting 10 30.6
2015-Jul-28 18:11 100 3 gusting 13 30.0
2015-Jul-28 17:56 080 2 gusting 9 30.6
2015-Jul-28 17:41 154 2 gusting 9 30.6
2015-Jul-28 17:27 121 2 gusting 11 30.6
2015-Jul-28 17:10 085 2 gusting 13 30.6
2015-Jul-28 16:55 132 1 gusting 13 30.0
2015-Jul-28 16:40 093 4 gusting 13 30.0
2015-Jul-28 16:25 070 6 gusting 11 30.0
2015-Jul-28 16:10 088 2 gusting 12 30.0